Location: Plzen
(49.7500°N, 13.3670°E)
Time: 04:35:59
(UTC+02:00)

ISS - Pass Details

Date: 27 May 2021
Orbit: 417 x 422 km, 51.6° (Epoch: 13 June)

Event Time Altitude Azimuth Distance (km) Brightness Sun altitude
Rises 23:50:58 0° 282° (WNW) 2,368 0.5 -17.0°
Reaches altitude 10° 23:53:47 10° 257° (WSW) 1,500 -0.9 -17.1°
Enters shadow 23:54:58 14° 237° (WSW) 1,300 -1.4 -17.2°
